Time,TemperatureF,DewpointF,PressureIn,WindDirection,WindDirectionDegrees,WindSpeedMPH,WindSpeedGustMPH,Humidity,HourlyPrecipIn,Conditions,Clouds,dailyrainin,SoftwareType,DateUTC
2013-04-15 04:37:00,60.6,39.7,29.99,WSW,237,0.0,0.0,46,0.00,,---,0.00,VWS V14.01,2013-04-15 08:37:00,
2013-04-15 04:40:00,60.5,40.2,29.99,East,80,0.0,1.0,47,0.00,,---,0.00,VWS V14.01,2013-04-15 08:40:00,
2013-04-15 04:45:00,60.4,39.5,30.00,SW,222,1.0,3.0,46,0.00,,---,0.00,VWS V14.01,2013-04-15 08:45:00,
2013-04-15 04:50:00,60.4,40.1,30.00,NW,315,0.0,0.0,47,0.00,,---,0.00,VWS V14.01,2013-04-15 08:50:00,
2013-04-15 04:55:00,60.5,39.6,30.00,WSW,242,5.0,8.0,46,0.00,,---,0.00,VWS V14.01,2013-04-15 08:55:00,
2013-04-15 05:00:00,60.6,40.3,30.00,SSE,164,1.0,5.0,47,0.00,,---,0.00,VWS V14.01,2013-04-15 09:00:00,
2013-04-15 05:05:00,60.6,40.3,30.00,SW,218,0.0,8.0,47,0.00,,---,0.00,VWS V14.01,2013-04-15 09:05:00,
2013-04-15 05:10:00,60.6,39.7,30.01,South,187,4.0,5.0,46,0.00,,---,0.00,VWS V14.01,2013-04-15 09:10:00,
2013-04-15 05:15:00,60.7,39.8,30.01,South,184,7.0,12.0,46,0.00,,---,0.00,VWS V14.01,2013-04-15 09:15:00,
2013-04-15 05:20:00,60.6,39.7,30.00,SSE,164,9.0,13.0,46,0.00,,---,0.00,VWS V14.01,2013-04-15 09:20:00,
2013-04-15 05:25:00,60.4,40.1,30.00,SE,133,8.0,15.0,47,0.00,,---,0.00,VWS V14.01,2013-04-15 09:25:00,
2013-04-15 05:30:00,60.3,40.0,30.00,SE,133,15.0,15.0,47,0.00,,---,0.00,VWS V14.01,2013-04-15 09:30:00,
2013-04-15 05:35:00,60.4,40.1,30.01,SSE,153,12.0,19.0,47,0.00,,---,0.00,VWS V14.01,2013-04-15 09:35:00,
2013-04-15 05:40:00,60.6,39.7,30.01,SSE,150,9.0,20.0,46,0.00,,---,0.00,VWS V14.01,2013-04-15 09:40:00,
2013-04-15 05:45:00,60.6,40.3,30.01,SE,145,13.0,20.0,47,0.00,,---,0.00,VWS V14.01,2013-04-15 09:45:00,
2013-04-15 05:50:00,60.8,39.9,30.02,South,180,9.0,14.0,46,0.00,,---,0.00,VWS V14.01,2013-04-15 09:50:00,
2013-04-15 05:55:00,60.7,40.4,30.02,SE,137,12.0,14.0,47,0.00,,---,0.00,VWS V14.01,2013-04-15 09:55:00,
2013-04-15 06:00:00,60.5,40.2,30.02,SE,135,10.0,13.0,47,0.00,,---,0.00,VWS V14.01,2013-04-15 10:00:00,
2013-04-15 06:05:00,60.3,40.5,30.02,SSW,192,15.0,15.0,48,0.00,,---,0.00,VWS V14.01,2013-04-15 10:05:00,
2013-04-15 06:10:00,60.1,40.4,30.02,ESE,123,8.0,15.0,48,0.00,,---,0.00,VWS V14.01,2013-04-15 10:10:00,
2013-04-15 06:15:00,59.9,40.2,30.02,SSE,160,10.0,16.0,48,0.00,,---,0.00,VWS V14.01,2013-04-15 10:15:00,
2013-04-15 06:20:00,59.9,40.2,30.02,SSE,157,11.0,16.0,48,0.00,,---,0.00,VWS V14.01,2013-04-15 10:20:00,
2013-04-15 06:25:00,59.7,40.0,30.03,SSE,148,6.0,16.0,48,0.00,,---,0.00,VWS V14.01,2013-04-15 10:25:00,
2013-04-15 06:30:00,59.6,40.4,30.03,SSE,152,9.0,14.0,49,0.00,,---,0.00,VWS V14.01,2013-04-15 10:30:00,
2013-04-15 06:35:00,59.6,40.4,30.04,SSE,149,9.0,21.0,49,0.00,,---,0.00,VWS V14.01,2013-04-15 10:35:00,
2013-04-15 06:40:00,59.5,40.3,30.04,SSE,148,6.0,9.0,49,0.00,,---,0.00,VWS V14.01,2013-04-15 10:40:00,
2013-04-15 06:45:00,59.4,40.2,30.04,South,172,6.0,10.0,49,0.00,,---,0.00,VWS V14.01,2013-04-15 10:45:00,
2013-04-15 06:50:00,59.2,40.6,30.04,ESE,103,6.0,6.0,50,0.00,,---,0.00,VWS V14.01,2013-04-15 10:50:00,
2013-04-15 06:55:00,59.1,40.5,30.05,SE,142,6.0,8.0,50,0.00,,---,0.00,VWS V14.01,2013-04-15 10:55:00,
2013-04-15 07:00:00,59.2,41.1,30.05,SSE,155,10.0,12.0,51,0.00,,---,0.00,VWS V14.01,2013-04-15 11:00:00,
2013-04-15 07:05:00,59.1,41.0,30.05,SSE,153,10.0,12.0,51,0.00,,---,0.00,VWS V14.01,2013-04-15 11:05:00,
2013-04-15 07:10:00,59.0,40.9,30.06,SE,128,4.0,7.0,51,0.00,,---,0.00,VWS V14.01,2013-04-15 11:10:00,
2013-04-15 07:15:00,59.1,41.5,30.06,SE,137,5.0,10.0,52,0.00,,---,0.00,VWS V14.01,2013-04-15 11:15:00,
2013-04-15 07:20:00,59.0,41.4,30.06,SSE,159,6.0,8.0,52,0.00,,---,0.00,VWS V14.01,2013-04-15 11:20:00,
2013-04-15 07:25:00,59.0,41.4,30.06,SE,135,5.0,11.0,52,0.00,,---,0.00,VWS V14.01,2013-04-15 11:25:00,
2013-04-15 07:30:00,58.9,41.3,30.06,ESE,123,15.0,15.0,52,0.00,,---,0.00,VWS V14.01,2013-04-15 11:30:00,
2013-04-15 07:31:00,58.9,41.3,30.06,SE,140,9.0,15.0,52,0.00,,---,0.00,VWS V14.01,2013-04-15 11:31:00,
2013-04-15 07:36:00,58.7,41.1,30.06,SE,125,11.0,15.0,52,0.00,,---,0.00,VWS V14.01,2013-04-15 11:36:00,
2013-04-15 07:40:00,58.7,41.1,30.06,SE,128,6.0,15.0,52,0.00,,---,0.00,VWS V14.01,2013-04-15 11:40:00,
2013-04-15 07:41:00,58.6,41.5,30.06,SSE,157,8.0,11.0,53,0.00,,---,0.00,VWS V14.01,2013-04-15 11:41:00,
2013-04-15 07:46:00,58.6,41.5,30.07,SE,139,5.0,11.0,53,0.00,,---,0.00,VWS V14.01,2013-04-15 11:46:00,
2013-04-15 07:50:00,58.6,41.5,30.06,South,191,3.0,11.0,53,0.00,,---,0.00,VWS V14.01,2013-04-15 11:50:00,
2013-04-15 07:51:00,58.6,42.0,30.06,ESE,111,1.0,3.0,54,0.00,,---,0.00,VWS V14.01,2013-04-15 11:51:00,
2013-04-15 07:56:00,58.5,41.9,30.06,South,172,6.0,9.0,54,0.00,,---,0.00,VWS V14.01,2013-04-15 11:56:00,
2013-04-15 08:00:00,58.5,41.9,30.06,East,94,4.0,9.0,54,0.00,,---,0.00,VWS V14.01,2013-04-15 12:00:00,
2013-04-15 08:02:00,58.5,42.4,30.05,SSE,167,6.0,12.0,55,0.00,,---,0.00,VWS V14.01,2013-04-15 12:02:00,
2013-04-15 08:07:00,58.6,42.0,30.06,SSE,156,7.0,12.0,54,0.00,,---,0.00,VWS V14.01,2013-04-15 12:07:00,
2013-04-15 08:10:00,58.6,42.5,30.06,SE,146,4.0,12.0,55,0.00,,---,0.00,VWS V14.01,2013-04-15 12:10:00,
2013-04-15 08:12:00,58.7,43.1,30.06,SSW,196,5.0,8.0,56,0.00,,---,0.00,VWS V14.01,2013-04-15 12:12:00,
2013-04-15 08:17:00,59.1,43.4,30.06,SSE,149,0.0,9.0,56,0.00,,---,0.00,VWS V14.01,2013-04-15 12:17:00,
2013-04-15 08:20:00,59.2,43.5,30.06,SE,126,4.0,9.0,56,0.00,,---,0.00,VWS V14.01,2013-04-15 12:20:00,
2013-04-15 08:22:00,59.3,43.6,30.06,West,268,4.0,7.0,56,0.00,,---,0.00,VWS V14.01,2013-04-15 12:22:00,
2013-04-15 08:27:00,59.5,43.8,30.06,SSW,210,1.0,9.0,56,0.00,,---,0.00,VWS V14.01,2013-04-15 12:27:00,
2013-04-15 08:30:00,59.5,43.8,30.07,South,173,5.0,9.0,56,0.00,,---,0.00,VWS V14.01,2013-04-15 12:30:00,
2013-04-15 08:33:00,59.7,44.0,30.07,SSW,211,0.0,7.0,56,0.00,,---,0.00,VWS V14.01,2013-04-15 12:33:00,
2013-04-15 08:38:00,59.8,44.5,30.07,South,190,0.0,7.0,57,0.00,,---,0.00,VWS V14.01,2013-04-15 12:38:00,
2013-04-15 08:40:00,59.8,44.1,30.07,SSW,192,0.0,7.0,56,0.00,,---,0.00,VWS V14.01,2013-04-15 12:40:00,
2013-04-15 08:43:00,59.9,44.7,30.07,ESE,123,0.0,2.0,57,0.00,,---,0.00,VWS V14.01,2013-04-15 12:43:00,
2013-04-15 08:48:00,60.0,44.7,30.07,SSE,163,0.0,2.0,57,0.00,,---,0.00,VWS V14.01,2013-04-15 12:48:00,
2013-04-15 08:50:00,60.0,44.7,30.07,SSE,163,0.0,2.0,57,0.00,,---,0.00,VWS V14.01,2013-04-15 12:50:00,
2013-04-15 08:53:00,60.1,45.3,30.06,SSE,153,7.0,8.0,58,0.00,,---,0.00,VWS V14.01,2013-04-15 12:53:00,
2013-04-15 08:59:00,60.2,45.4,30.06,SSW,209,2.0,9.0,58,0.00,,---,0.00,VWS V14.01,2013-04-15 12:59:00,
2013-04-15 09:00:00,60.2,45.4,30.06,SSE,164,2.0,9.0,58,0.00,,---,0.00,VWS V14.01,2013-04-15 13:00:00,
2013-04-15 09:04:00,60.7,45.4,30.06,SSE,154,13.0,14.0,57,0.00,,---,0.00,VWS V14.01,2013-04-15 13:04:00,
2013-04-15 09:09:00,61.3,45.5,30.05,SE,138,8.0,16.0,56,0.00,,---,0.00,VWS V14.01,2013-04-15 13:09:00,
2013-04-15 09:10:00,61.3,45.5,30.05,SE,138,8.0,16.0,56,0.00,,---,0.00,VWS V14.01,2013-04-15 13:10:00,
2013-04-15 09:14:00,61.3,46.0,30.05,South,172,5.0,14.0,57,0.00,,---,0.00,VWS V14.01,2013-04-15 13:14:00,
2013-04-15 09:19:00,61.4,46.0,30.05,SSE,153,9.0,10.0,57,0.00,,---,0.00,VWS V14.01,2013-04-15 13:19:00,
2013-04-15 09:20:00,61.4,46.0,30.05,South,169,10.0,14.0,57,0.00,,---,0.00,VWS V14.01,2013-04-15 13:20:00,
2013-04-15 09:24:00,61.4,46.0,30.05,SSE,164,9.0,11.0,57,0.00,,---,0.00,VWS V14.01,2013-04-15 13:24:00,
2013-04-15 09:29:00,61.4,45.6,30.04,WSW,237,8.0,9.0,56,0.00,,---,0.00,VWS V14.01,2013-04-15 13:29:00,
2013-04-15 09:30:00,61.4,45.6,30.05,SSW,202,9.0,14.0,56,0.00,,---,0.00,VWS V14.01,2013-04-15 13:30:00,
2013-04-15 09:34:00,61.4,45.6,30.05,SSE,167,6.0,15.0,56,0.00,,---,0.00,VWS V14.01,2013-04-15 13:34:00,
2013-04-15 09:39:00,61.5,45.7,30.05,SSE,163,5.0,6.0,56,0.00,,---,0.00,VWS V14.01,2013-04-15 13:39:00,
2013-04-15 09:40:00,61.5,46.1,30.05,SE,128,6.0,15.0,57,0.00,,---,0.00,VWS V14.01,2013-04-15 13:40:00,
2013-04-15 09:44:00,61.5,45.2,30.05,SSE,153,8.0,13.0,55,0.00,,---,0.00,VWS V14.01,2013-04-15 13:44:00,
2013-04-15 09:49:00,61.5,45.7,30.05,SSE,150,10.0,10.0,56,0.00,,---,0.00,VWS V14.01,2013-04-15 13:49:00,
2013-04-15 09:50:00,61.5,45.7,30.05,SSE,154,6.0,13.0,56,0.00,,---,0.00,VWS V14.01,2013-04-15 13:50:00,
2013-04-15 09:54:00,61.6,45.3,30.04,SE,133,13.0,17.0,55,0.00,,---,0.00,VWS V14.01,2013-04-15 13:54:00,
2013-04-15 09:59:00,61.8,45.0,30.04,SSW,200,14.0,24.0,54,0.00,,---,0.00,VWS V14.01,2013-04-15 13:59:00,
2013-04-15 10:00:00,61.8,45.0,30.04,SSW,192,20.0,22.0,54,0.00,,---,0.00,VWS V14.01,2013-04-15 14:00:00,
2013-04-15 10:04:00,61.9,45.1,30.05,South,176,8.0,24.0,54,0.00,,---,0.00,VWS V14.01,2013-04-15 14:04:00,
2013-04-15 10:09:00,62.0,45.7,30.05,SE,145,8.0,9.0,55,0.00,,---,0.00,VWS V14.01,2013-04-15 14:09:00,
2013-04-15 10:10:00,62.0,45.2,30.05,SSE,161,8.0,24.0,54,0.00,,---,0.00,VWS V14.01,2013-04-15 14:10:00,
2013-04-15 10:14:00,62.4,45.5,30.05,South,169,12.0,12.0,54,0.00,,---,0.00,VWS V14.01,2013-04-15 14:14:00,
2013-04-15 10:19:00,62.8,46.4,30.05,SW,219,6.0,8.0,55,0.00,,---,0.00,VWS V14.01,2013-04-15 14:19:00,
2013-04-15 10:20:00,62.7,46.3,30.05,SSE,159,5.0,19.0,55,0.00,,---,0.00,VWS V14.01,2013-04-15 14:20:00,
2013-04-15 10:24:00,62.9,45.5,30.06,SW,219,11.0,16.0,53,0.00,,---,0.00,VWS V14.01,2013-04-15 14:24:00,
2013-04-15 10:29:00,62.9,46.0,30.06,SSW,192,6.0,7.0,54,0.00,,---,0.00,VWS V14.01,2013-04-15 14:29:00,
2013-04-15 10:30:00,62.9,46.0,30.06,South,190,7.0,19.0,54,0.00,,---,0.00,VWS V14.01,2013-04-15 14:30:00,
2013-04-15 10:34:00,62.9,46.0,30.06,SSE,160,7.0,10.0,54,0.00,,---,0.00,VWS V14.01,2013-04-15 14:34:00,
2013-04-15 10:39:00,62.8,45.9,30.06,SSE,165,13.0,15.0,54,0.00,,---,0.00,VWS V14.01,2013-04-15 14:39:00,
2013-04-15 10:40:00,62.8,45.9,30.06,South,188,10.0,17.0,54,0.00,,---,0.00,VWS V14.01,2013-04-15 14:40:00,
2013-04-15 10:44:00,62.8,46.4,30.06,South,182,10.0,15.0,55,0.00,,---,0.00,VWS V14.01,2013-04-15 14:44:00,
2013-04-15 10:49:00,62.6,45.7,30.06,SSE,168,7.0,8.0,54,0.00,,---,0.00,VWS V14.01,2013-04-15 14:49:00,
2013-04-15 10:50:00,62.6,45.7,30.06,South,169,6.0,15.0,54,0.00,,---,0.00,VWS V14.01,2013-04-15 14:50:00,
2013-04-15 10:54:00,62.5,46.1,30.06,SE,142,10.0,13.0,55,0.00,,---,0.00,VWS V14.01,2013-04-15 14:54:00,
2013-04-15 10:59:00,62.3,45.5,30.06,SSW,195,7.0,11.0,54,0.00,,---,0.00,VWS V14.01,2013-04-15 14:59:00,
2013-04-15 11:00:00,62.3,45.5,30.06,SSW,192,8.0,15.0,54,0.00,,---,0.00,VWS V14.01,2013-04-15 15:00:00,
2013-04-15 11:04:00,62.4,46.0,30.06,SSE,153,6.0,11.0,55,0.00,,---,0.00,VWS V14.01,2013-04-15 15:04:00,
2013-04-15 11:09:00,62.5,46.1,30.06,South,169,8.0,11.0,55,0.00,,---,0.00,VWS V14.01,2013-04-15 15:09:00,
2013-04-15 11:10:00,62.5,46.1,30.06,SSE,155,11.0,15.0,55,0.00,,---,0.00,VWS V14.01,2013-04-15 15:10:00,
2013-04-15 11:15:00,62.7,46.3,30.06,SSE,166,10.0,17.0,55,0.00,,---,0.00,VWS V14.01,2013-04-15 15:15:00,
2013-04-15 11:20:00,62.4,46.0,30.06,SSW,209,10.0,13.0,55,0.00,,---,0.00,VWS V14.01,2013-04-15 15:20:00,
2013-04-15 11:25:00,62.3,46.4,30.06,SSW,194,15.0,17.0,56,0.00,,---,0.00,VWS V14.01,2013-04-15 15:25:00,
2013-04-15 11:30:00,62.0,46.6,30.06,South,179,9.0,12.0,57,0.00,,---,0.00,VWS V14.01,2013-04-15 15:30:00,
2013-04-15 11:35:00,61.8,46.9,30.06,South,182,4.0,13.0,58,0.00,,---,0.00,VWS V14.01,2013-04-15 15:35:00,
2013-04-15 11:40:00,61.7,46.8,30.07,South,176,9.0,11.0,58,0.00,,---,0.00,VWS V14.01,2013-04-15 15:40:00,
2013-04-15 11:45:00,61.5,47.1,30.07,SSW,201,4.0,11.0,59,0.00,,---,0.00,VWS V14.01,2013-04-15 15:45:00,
2013-04-15 11:50:00,61.4,47.4,30.07,South,186,2.0,11.0,60,0.00,,---,0.00,VWS V14.01,2013-04-15 15:50:00,
2013-04-15 11:55:00,61.1,47.6,30.07,SSW,213,5.0,11.0,61,0.00,,---,0.00,VWS V14.01,2013-04-15 15:55:00,
2013-04-15 12:00:00,60.8,46.8,30.06,SSE,165,6.0,12.0,60,0.00,,---,0.00,VWS V14.01,2013-04-15 16:00:00,
2013-04-15 12:05:00,60.7,47.2,30.07,SSE,168,5.0,12.0,61,0.00,,---,0.00,VWS V14.01,2013-04-15 16:05:00,
2013-04-15 12:10:00,60.7,47.2,30.07,West,276,7.0,8.0,61,0.00,,---,0.00,VWS V14.01,2013-04-15 16:10:00,
2013-04-15 12:15:00,60.7,47.2,30.07,South,171,4.0,12.0,61,0.00,,---,0.00,VWS V14.01,2013-04-15 16:15:00,
2013-04-15 12:20:00,60.8,47.3,30.07,SSE,167,11.0,11.0,61,0.00,,---,0.00,VWS V14.01,2013-04-15 16:20:00,
2013-04-15 12:25:00,60.9,47.4,30.07,South,173,7.0,13.0,61,0.00,,---,0.00,VWS V14.01,2013-04-15 16:25:00,
2013-04-15 12:30:00,60.9,47.4,30.07,SSW,194,9.0,11.0,61,0.00,,---,0.00,VWS V14.01,2013-04-15 16:30:00,
2013-04-15 12:35:00,60.9,47.4,30.07,South,176,8.0,14.0,61,0.00,,---,0.00,VWS V14.01,2013-04-15 16:35:00,
2013-04-15 12:40:00,61.1,48.0,30.07,SSE,154,7.0,12.0,62,0.00,,---,0.00,VWS V14.01,2013-04-15 16:40:00,
2013-04-15 12:45:00,61.1,48.0,30.07,SW,225,8.0,12.0,62,0.00,,---,0.00,VWS V14.01,2013-04-15 16:45:00,
2013-04-15 12:50:00,61.4,47.8,30.07,South,186,11.0,15.0,61,0.00,,---,0.00,VWS V14.01,2013-04-15 16:50:00,
2013-04-15 12:55:00,61.4,48.3,30.07,South,183,8.0,15.0,62,0.00,,---,0.00,VWS V14.01,2013-04-15 16:55:00,
2013-04-15 13:00:00,61.6,48.5,30.07,SSW,210,13.0,15.0,62,0.00,,---,0.00,VWS V14.01,2013-04-15 17:00:00,
2013-04-15 13:05:00,61.7,48.6,30.07,SSW,196,6.0,16.0,62,0.00,,---,0.00,VWS V14.01,2013-04-15 17:05:00,
2013-04-15 13:10:00,61.7,48.6,30.07,South,191,12.0,20.0,62,0.00,,---,0.00,VWS V14.01,2013-04-15 17:10:00,
2013-04-15 13:11:00,61.7,48.6,30.07,South,185,7.0,14.0,62,0.00,,---,0.00,VWS V14.01,2013-04-15 17:11:00,
2013-04-15 13:16:00,61.6,48.5,30.07,South,176,9.0,16.0,62,0.00,,---,0.00,VWS V14.01,2013-04-15 17:16:00,
2013-04-15 13:20:00,61.4,48.7,30.07,South,185,8.0,19.0,63,0.00,,---,0.00,VWS V14.01,2013-04-15 17:20:00,
2013-04-15 13:21:00,61.3,48.6,30.07,SW,221,5.0,9.0,63,0.00,,---,0.00,VWS V14.01,2013-04-15 17:21:00,
2013-04-15 13:22:00,61.3,48.6,30.07,SE,142,6.0,9.0,63,0.00,,---,0.00,VWS V14.01,2013-04-15 17:22:00,
2013-04-15 13:24:00,61.3,48.6,30.07,SSE,150,8.0,13.0,63,0.00,,---,0.00,VWS V14.01,2013-04-15 17:24:00,
2013-04-15 13:30:00,61.3,48.2,30.08,SE,146,6.0,9.0,62,0.00,,---,0.00,VWS V14.01,2013-04-15 17:30:00,
2013-04-15 13:35:00,61.3,48.6,30.07,SSE,159,6.0,11.0,63,0.00,,---,0.00,VWS V14.01,2013-04-15 17:35:00,
2013-04-15 13:40:00,61.4,48.7,30.08,South,184,6.0,7.0,63,0.00,,---,0.00,VWS V14.01,2013-04-15 17:40:00,
2013-04-15 13:45:00,61.4,48.7,30.07,SE,127,7.0,10.0,63,0.00,,---,0.00,VWS V14.01,2013-04-15 17:45:00,
2013-04-15 13:50:00,61.4,48.7,30.07,South,188,8.0,10.0,63,0.00,,---,0.00,VWS V14.01,2013-04-15 17:50:00,
2013-04-15 13:55:00,61.4,48.3,30.06,SSW,205,6.0,17.0,62,0.00,,---,0.00,VWS V14.01,2013-04-15 17:55:00,
2013-04-15 14:00:00,61.3,48.6,30.06,SSE,150,9.0,12.0,63,0.00,,---,0.00,VWS V14.01,2013-04-15 18:00:00,
2013-04-15 14:05:00,61.3,49.0,30.06,SE,136,12.0,18.0,64,0.00,,---,0.00,VWS V14.01,2013-04-15 18:05:00,
2013-04-15 14:10:00,61.1,49.3,30.06,SW,215,9.0,13.0,65,0.00,,---,0.00,VWS V14.01,2013-04-15 18:10:00,
2013-04-15 14:15:00,61.3,49.9,30.07,SSW,194,7.0,14.0,66,0.00,,---,0.00,VWS V14.01,2013-04-15 18:15:00,
2013-04-15 14:20:00,61.7,49.8,30.07,SSE,158,8.0,12.0,65,0.00,,---,0.00,VWS V14.01,2013-04-15 18:20:00,
2013-04-15 14:25:00,62.0,49.7,30.07,South,190,10.0,19.0,64,0.00,,---,0.00,VWS V14.01,2013-04-15 18:25:00,
2013-04-15 14:29:00,62.4,49.7,30.07,South,175,13.0,19.0,63,0.00,,---,0.00,VWS V14.01,2013-04-15 18:29:00,
2013-04-15 14:30:00,62.4,49.7,30.07,South,178,18.0,19.0,63,0.00,,---,0.00,VWS V14.01,2013-04-15 18:30:00,
2013-04-15 14:34:00,63.0,49.8,30.07,SSE,167,14.0,18.0,62,0.00,,---,0.00,VWS V14.01,2013-04-15 18:34:00,
2013-04-15 14:39:00,63.3,49.6,30.06,SSW,207,7.0,10.0,61,0.00,,---,0.00,VWS V14.01,2013-04-15 18:39:00,
2013-04-15 14:40:00,63.3,49.6,30.06,South,184,8.0,18.0,61,0.00,,---,0.00,VWS V14.01,2013-04-15 18:40:00,
2013-04-15 14:44:00,63.5,49.4,30.06,SSW,212,7.0,20.0,60,0.00,,---,0.00,VWS V14.01,2013-04-15 18:44:00,
2013-04-15 14:49:00,63.8,49.2,30.06,South,182,9.0,9.0,59,0.00,,---,0.00,VWS V14.01,2013-04-15 18:49:00,
2013-04-15 14:50:00,63.7,49.1,30.06,SSW,210,7.0,20.0,59,0.00,,---,0.00,VWS V14.01,2013-04-15 18:50:00,
2013-04-15 14:54:00,64.0,48.9,30.06,SSW,200,13.0,18.0,58,0.00,,---,0.00,VWS V14.01,2013-04-15 18:54:00,
2013-04-15 14:59:00,64.0,48.9,30.06,SSE,165,13.0,18.0,58,0.00,,---,0.00,VWS V14.01,2013-04-15 18:59:00,
2013-04-15 15:00:00,64.0,48.9,30.06,SSE,156,18.0,18.0,58,0.00,,---,0.00,VWS V14.01,2013-04-15 19:00:00,
2013-04-15 15:04:00,63.7,48.7,30.06,SSW,209,6.0,21.0,58,0.00,,---,0.00,VWS V14.01,2013-04-15 19:04:00,
2013-04-15 15:09:00,63.7,48.7,30.06,South,173,8.0,10.0,58,0.00,,---,0.00,VWS V14.01,2013-04-15 19:09:00,
2013-04-15 15:10:00,63.7,48.7,30.06,SSE,152,9.0,21.0,58,0.00,,---,0.00,VWS V14.01,2013-04-15 19:10:00,
2013-04-15 15:14:00,63.5,48.5,30.06,South,172,11.0,21.0,58,0.00,,---,0.00,VWS V14.01,2013-04-15 19:14:00,
2013-04-15 15:19:00,63.3,48.3,30.06,SSE,163,10.0,10.0,58,0.00,,---,0.00,VWS V14.01,2013-04-15 19:19:00,
2013-04-15 15:20:00,63.3,48.3,30.06,South,169,9.0,21.0,58,0.00,,---,0.00,VWS V14.01,2013-04-15 19:20:00,
2013-04-15 15:24:00,63.3,48.3,30.06,SSW,194,14.0,16.0,58,0.00,,---,0.00,VWS V14.01,2013-04-15 19:24:00,
2013-04-15 15:29:00,63.3,48.3,30.06,SE,146,17.0,17.0,58,0.00,,---,0.00,VWS V14.01,2013-04-15 19:29:00,
2013-04-15 15:30:00,63.3,48.3,30.06,SE,146,13.0,19.0,58,0.00,,---,0.00,VWS V14.01,2013-04-15 19:30:00,
2013-04-15 15:35:00,63.2,48.2,30.06,SSE,167,8.0,20.0,58,0.00,,---,0.00,VWS V14.01,2013-04-15 19:35:00,
2013-04-15 15:40:00,63.2,48.2,30.06,South,171,8.0,12.0,58,0.00,,---,0.00,VWS V14.01,2013-04-15 19:40:00,
2013-04-15 15:45:00,63.1,48.6,30.06,SSE,148,9.0,16.0,59,0.00,,---,0.00,VWS V14.01,2013-04-15 19:45:00,
2013-04-15 15:50:00,62.8,48.3,30.07,SSE,151,10.0,12.0,59,0.00,,---,0.00,VWS V14.01,2013-04-15 19:50:00,
2013-04-15 15:55:00,62.6,48.1,30.06,SE,142,7.0,14.0,59,0.00,,---,0.00,VWS V14.01,2013-04-15 19:55:00,
2013-04-15 15:58:00,62.6,48.5,30.06,ESE,118,9.0,14.0,60,0.00,,---,0.00,VWS V14.01,2013-04-15 19:58:00,
2013-04-15 16:00:00,62.6,48.5,30.06,SE,138,6.0,14.0,60,0.00,,---,0.00,VWS V14.01,2013-04-15 20:00:00,
2013-04-15 16:02:00,62.5,48.0,30.06,SE,146,8.0,14.0,59,0.00,,---,0.00,VWS V14.01,2013-04-15 20:02:00,
2013-04-15 16:03:00,62.5,48.4,30.06,SSE,163,10.0,14.0,60,0.00,,---,0.00,VWS V14.01,2013-04-15 20:03:00,
2013-04-15 16:08:00,62.5,48.0,30.06,SSE,156,7.0,14.0,59,0.00,,---,0.00,VWS V14.01,2013-04-15 20:08:00,
2013-04-15 16:10:00,62.6,48.5,30.06,SSE,148,6.0,14.0,60,0.00,,---,0.00,VWS V14.01,2013-04-15 20:10:00,
2013-04-15 16:13:00,62.7,48.6,30.05,ESE,121,7.0,12.0,60,0.00,,---,0.00,VWS V14.01,2013-04-15 20:13:00,
2013-04-15 16:18:00,62.9,48.4,30.05,South,183,7.0,17.0,59,0.00,,---,0.00,VWS V14.01,2013-04-15 20:18:00,
2013-04-15 16:20:00,62.9,47.9,30.05,South,173,11.0,17.0,58,0.00,,---,0.00,VWS V14.01,2013-04-15 20:20:00,
2013-04-15 16:23:00,63.3,49.2,30.04,SSE,163,8.0,14.0,60,0.00,,---,0.00,VWS V14.01,2013-04-15 20:23:00,
2013-04-15 16:28:00,64.0,48.9,30.04,SE,146,10.0,15.0,58,0.00,,---,0.00,VWS V14.01,2013-04-15 20:28:00,
2013-04-15 16:30:00,64.2,49.1,30.04,SSE,168,15.0,17.0,58,0.00,,---,0.00,VWS V14.01,2013-04-15 20:30:00,
2013-04-15 16:33:00,64.5,48.5,30.04,South,191,5.0,20.0,56,0.00,,---,0.00,VWS V14.01,2013-04-15 20:33:00,
2013-04-15 16:38:00,64.9,49.3,30.04,SW,219,9.0,20.0,57,0.00,,---,0.00,VWS V14.01,2013-04-15 20:38:00,
2013-04-15 16:40:00,65.0,48.9,30.04,SSE,167,8.0,20.0,56,0.00,,---,0.00,VWS V14.01,2013-04-15 20:40:00,
2013-04-15 16:43:00,65.3,48.7,30.04,SSW,195,11.0,12.0,55,0.00,,---,0.00,VWS V14.01,2013-04-15 20:43:00,
2013-04-15 16:48:00,65.3,48.2,30.04,SW,215,10.0,17.0,54,0.00,,---,0.00,VWS V14.01,2013-04-15 20:48:00,
2013-04-15 16:50:00,65.2,48.2,30.04,SSE,167,9.0,17.0,54,0.00,,---,0.00,VWS V14.01,2013-04-15 20:50:00,
2013-04-15 16:53:00,65.1,48.5,30.04,SSE,155,12.0,15.0,55,0.00,,---,0.00,VWS V14.01,2013-04-15 20:53:00,
2013-04-15 16:58:00,65.1,48.5,30.04,SSE,155,9.0,15.0,55,0.00,,---,0.00,VWS V14.01,2013-04-15 20:58:00,
2013-04-15 17:00:00,65.1,48.5,30.04,SSE,159,8.0,15.0,55,0.00,,---,0.00,VWS V14.01,2013-04-15 21:00:00,
2013-04-15 17:03:00,65.2,48.6,30.04,SE,129,11.0,11.0,55,0.00,,---,0.00,VWS V14.01,2013-04-15 21:03:00,
2013-04-15 17:08:00,65.0,48.0,30.04,SSE,160,9.0,17.0,54,0.00,,---,0.00,VWS V14.01,2013-04-15 21:08:00,
2013-04-15 17:10:00,65.0,48.5,30.04,South,176,8.0,17.0,55,0.00,,---,0.00,VWS V14.01,2013-04-15 21:10:00,
2013-04-15 17:13:00,65.0,48.0,30.04,SSW,193,6.0,14.0,54,0.00,,---,0.00,VWS V14.01,2013-04-15 21:13:00,
2013-04-15 17:18:00,65.1,48.1,30.04,SSE,150,11.0,18.0,54,0.00,,---,0.00,VWS V14.01,2013-04-15 21:18:00,
2013-04-15 17:20:00,65.1,48.1,30.04,SSE,159,12.0,18.0,54,0.00,,---,0.00,VWS V14.01,2013-04-15 21:20:00,
2013-04-15 17:23:00,65.1,48.1,30.04,SE,136,13.0,16.0,54,0.00,,---,0.00,VWS V14.01,2013-04-15 21:23:00,
2013-04-15 17:28:00,65.6,48.0,30.04,SSE,156,15.0,19.0,53,0.00,,---,0.00,VWS V14.01,2013-04-15 21:28:00,
2013-04-15 17:30:00,65.6,48.0,30.04,SSE,150,14.0,19.0,53,0.00,,---,0.00,VWS V14.01,2013-04-15 21:30:00,
2013-04-15 17:33:00,65.4,47.8,30.04,SSE,163,15.0,19.0,53,0.00,,---,0.00,VWS V14.01,2013-04-15 21:33:00,
2013-04-15 17:38:00,65.3,47.8,30.04,SE,133,8.0,19.0,53,0.00,,---,0.00,VWS V14.01,2013-04-15 21:38:00,
2013-04-15 17:40:00,65.3,47.8,30.04,SSE,149,8.0,19.0,53,0.00,,---,0.00,VWS V14.01,2013-04-15 21:40:00,
2013-04-15 17:43:00,65.3,48.2,30.04,South,178,6.0,15.0,54,0.00,,---,0.00,VWS V14.01,2013-04-15 21:43:00,
2013-04-15 17:48:00,65.3,48.2,30.04,SSW,192,9.0,15.0,54,0.00,,---,0.00,VWS V14.01,2013-04-15 21:48:00,
2013-04-15 17:50:00,65.3,48.2,30.04,South,185,7.0,15.0,54,0.00,,---,0.00,VWS V14.01,2013-04-15 21:50:00,
2013-04-15 17:53:00,65.3,47.8,30.05,SSE,164,9.0,14.0,53,0.00,,---,0.00,VWS V14.01,2013-04-15 21:53:00,
2013-04-15 17:58:00,65.2,48.2,30.05,SSE,167,10.0,14.0,54,0.00,,---,0.00,VWS V14.01,2013-04-15 21:58:00,
2013-04-15 18:00:00,65.2,47.7,30.05,SSE,156,8.0,14.0,53,0.00,,---,0.00,VWS V14.01,2013-04-15 22:00:00,
2013-04-15 18:03:00,64.9,47.9,30.05,SSE,168,7.0,17.0,54,0.00,,---,0.00,VWS V14.01,2013-04-15 22:03:00,
2013-04-15 18:08:00,64.7,47.2,30.05,SE,137,11.0,19.0,53,0.00,,---,0.00,VWS V14.01,2013-04-15 22:08:00,
2013-04-15 18:10:00,64.7,47.2,30.05,SSE,150,11.0,19.0,53,0.00,,---,0.00,VWS V14.01,2013-04-15 22:10:00,
2013-04-15 18:13:00,64.6,47.6,30.06,SSE,153,7.0,11.0,54,0.00,,---,0.00,VWS V14.01,2013-04-15 22:13:00,
2013-04-15 18:18:00,64.6,47.6,30.05,SSE,159,7.0,15.0,54,0.00,,---,0.00,VWS V14.01,2013-04-15 22:18:00,
2013-04-15 18:20:00,64.6,47.6,30.05,SSW,200,7.0,15.0,54,0.00,,---,0.00,VWS V14.01,2013-04-15 22:20:00,
2013-04-15 18:23:00,64.6,47.6,30.05,SSE,148,12.0,13.0,54,0.00,,---,0.00,VWS V14.01,2013-04-15 22:23:00,
2013-04-15 18:28:00,64.5,47.0,30.05,SSE,167,13.0,16.0,53,0.00,,---,0.00,VWS V14.01,2013-04-15 22:28:00,
2013-04-15 18:30:00,64.5,47.0,30.05,SSE,157,9.0,16.0,53,0.00,,---,0.00,VWS V14.01,2013-04-15 22:30:00,
2013-04-15 18:33:00,64.5,47.0,30.05,SW,221,10.0,15.0,53,0.00,,---,0.00,VWS V14.01,2013-04-15 22:33:00,
2013-04-15 18:38:00,64.6,47.1,30.05,SSE,159,13.0,19.0,53,0.00,,---,0.00,VWS V14.01,2013-04-15 22:38:00,
2013-04-15 18:40:00,64.5,47.0,30.05,SE,130,13.0,19.0,53,0.00,,---,0.00,VWS V14.01,2013-04-15 22:40:00,
2013-04-15 18:43:00,64.6,47.1,30.05,SSW,205,8.0,16.0,53,0.00,,---,0.00,VWS V14.01,2013-04-15 22:43:00,
2013-04-15 18:48:00,64.6,47.6,30.05,SSE,155,8.0,16.0,54,0.00,,---,0.00,VWS V14.01,2013-04-15 22:48:00,
2013-04-15 18:50:00,64.6,47.6,30.05,SSE,161,9.0,16.0,54,0.00,,---,0.00,VWS V14.01,2013-04-15 22:50:00,
2013-04-15 18:53:00,64.6,47.6,30.05,SE,142,8.0,17.0,54,0.00,,---,0.00,VWS V14.01,2013-04-15 22:53:00,
2013-04-15 18:58:00,64.6,47.1,30.05,SE,142,8.0,17.0,53,0.00,,---,0.00,VWS V14.01,2013-04-15 22:58:00,
2013-04-15 19:00:00,64.6,47.1,30.05,SSE,149,8.0,17.0,53,0.00,,---,0.00,VWS V14.01,2013-04-15 23:00:00,
2013-04-15 19:04:00,64.7,47.2,30.05,SSE,165,8.0,12.0,53,0.00,,---,0.00,VWS V14.01,2013-04-15 23:04:00,
2013-04-15 19:09:00,64.7,47.2,30.05,SSE,163,6.0,12.0,53,0.00,,---,0.00,VWS V14.01,2013-04-15 23:09:00,
2013-04-15 19:10:00,64.7,47.2,30.05,SSE,167,5.0,12.0,53,0.00,,---,0.00,VWS V14.01,2013-04-15 23:10:00,
2013-04-15 19:14:00,64.7,47.2,30.05,SW,218,6.0,9.0,53,0.00,,---,0.00,VWS V14.01,2013-04-15 23:14:00,
2013-04-15 19:19:00,64.7,46.7,30.05,South,183,10.0,12.0,52,0.00,,---,0.00,VWS V14.01,2013-04-15 23:19:00,
2013-04-15 19:20:00,64.7,46.7,30.05,SSE,168,11.0,15.0,52,0.00,,---,0.00,VWS V14.01,2013-04-15 23:20:00,
2013-04-15 19:24:00,64.8,46.8,30.05,SSE,156,7.0,15.0,52,0.00,,---,0.00,VWS V14.01,2013-04-15 23:24:00,
2013-04-15 19:29:00,64.8,46.8,30.05,SSW,213,5.0,15.0,52,0.00,,---,0.00,VWS V14.01,2013-04-15 23:29:00,
2013-04-15 19:30:00,64.8,46.8,30.05,SSE,156,8.0,15.0,52,0.00,,---,0.00,VWS V14.01,2013-04-15 23:30:00,
2013-04-15 19:34:00,64.7,46.7,30.04,South,178,12.0,13.0,52,0.00,,---,0.00,VWS V14.01,2013-04-15 23:34:00,
2013-04-15 19:39:00,64.6,46.6,30.04,SSE,166,9.0,14.0,52,0.00,,---,0.00,VWS V14.01,2013-04-15 23:39:00,
2013-04-15 19:40:00,64.6,46.6,30.04,SW,214,8.0,14.0,52,0.00,,---,0.00,VWS V14.01,2013-04-15 23:40:00,
2013-04-15 19:44:00,64.5,46.5,30.04,SSE,155,8.0,14.0,52,0.00,,---,0.00,VWS V14.01,2013-04-15 23:44:00,
2013-04-15 19:49:00,64.4,46.4,30.04,SE,145,5.0,14.0,52,0.00,,---,0.00,VWS V14.01,2013-04-15 23:49:00,
2013-04-15 19:50:00,64.4,46.4,30.04,SE,145,5.0,14.0,52,0.00,,---,0.00,VWS V14.01,2013-04-15 23:50:00,
2013-04-15 19:54:00,64.2,46.7,30.04,SSE,163,6.0,9.0,53,0.00,,---,0.00,VWS V14.01,2013-04-15 23:54:00,
2013-04-15 19:59:00,64.1,46.6,30.04,SSW,195,3.0,12.0,53,0.00,,---,0.00,VWS V14.01,2013-04-15 23:59:00,
2013-04-15 20:00:00,64.1,46.6,30.04,South,182,5.0,12.0,53,0.00,,---,0.00,VWS V14.01,2013-04-16 00:00:00,
2013-04-15 20:04:00,63.8,46.8,30.05,South,182,13.0,18.0,54,0.00,,---,0.00,VWS V14.01,2013-04-16 00:04:00,
2013-04-15 20:09:00,63.7,46.8,30.05,SSW,201,5.0,18.0,54,0.00,,---,0.00,VWS V14.01,2013-04-16 00:09:00,
2013-04-15 20:10:00,63.7,46.8,30.05,South,171,7.0,18.0,54,0.00,,---,0.00,VWS V14.01,2013-04-16 00:10:00,
2013-04-15 20:14:00,63.4,47.0,30.05,SSW,194,9.0,15.0,55,0.00,,---,0.00,VWS V14.01,2013-04-16 00:14:00,
2013-04-15 20:19:00,63.3,46.9,30.05,SSE,167,5.0,15.0,55,0.00,,---,0.00,VWS V14.01,2013-04-16 00:19:00,
2013-04-15 20:20:00,63.3,46.9,30.05,South,171,5.0,15.0,55,0.00,,---,0.00,VWS V14.01,2013-04-16 00:20:00,
2013-04-15 20:24:00,63.0,47.1,30.05,SSE,160,7.0,13.0,56,0.00,,---,0.00,VWS V14.01,2013-04-16 00:24:00,
2013-04-15 20:29:00,62.7,47.3,30.05,SSE,156,10.0,13.0,57,0.00,,---,0.00,VWS V14.01,2013-04-16 00:29:00,
2013-04-15 20:30:00,62.7,47.3,30.05,South,182,9.0,13.0,57,0.00,,---,0.00,VWS V14.01,2013-04-16 00:30:00,
2013-04-15 20:34:00,62.6,47.2,30.05,South,173,8.0,11.0,57,0.00,,---,0.00,VWS V14.01,2013-04-16 00:34:00,
2013-04-15 20:39:00,62.4,47.0,30.06,South,181,8.0,12.0,57,0.00,,---,0.00,VWS V14.01,2013-04-16 00:39:00,
2013-04-15 20:40:00,62.4,47.0,30.06,South,178,8.0,12.0,57,0.00,,---,0.00,VWS V14.01,2013-04-16 00:40:00,
2013-04-15 20:44:00,62.2,47.3,30.06,SSW,200,6.0,11.0,58,0.00,,---,0.00,VWS V14.01,2013-04-16 00:44:00,
2013-04-15 20:49:00,62.0,47.1,30.07,SSE,162,8.0,11.0,58,0.00,,---,0.00,VWS V14.01,2013-04-16 00:49:00,
2013-04-15 20:50:00,62.0,47.1,30.07,SSE,161,7.0,11.0,58,0.00,,---,0.00,VWS V14.01,2013-04-16 00:50:00,
2013-04-15 20:54:00,61.9,47.4,30.07,SSW,206,5.0,12.0,59,0.00,,---,0.00,VWS V14.01,2013-04-16 00:54:00,
2013-04-15 20:59:00,61.8,47.3,30.07,SSW,210,3.0,12.0,59,0.00,,---,0.00,VWS V14.01,2013-04-16 00:59:00,
2013-04-15 21:00:00,61.8,47.3,30.07,SW,221,5.0,12.0,59,0.00,,---,0.00,VWS V14.01,2013-04-16 01:00:00,
2013-04-15 21:04:00,61.7,47.2,30.07,South,188,3.0,10.0,59,0.00,,---,0.00,VWS V14.01,2013-04-16 01:04:00,
2013-04-15 21:09:00,61.6,47.2,30.07,SSW,200,4.0,10.0,59,0.00,,---,0.00,VWS V14.01,2013-04-16 01:09:00,
2013-04-15 21:10:00,61.6,47.2,30.07,SSE,168,5.0,10.0,59,0.00,,---,0.00,VWS V14.01,2013-04-16 01:10:00,
2013-04-15 21:14:00,61.3,47.3,30.07,South,180,3.0,7.0,60,0.00,,---,0.00,VWS V14.01,2013-04-16 01:14:00,
2013-04-15 21:19:00,61.2,47.2,30.07,SSE,163,4.0,7.0,60,0.00,,---,0.00,VWS V14.01,2013-04-16 01:19:00,
2013-04-15 21:20:00,61.2,47.2,30.07,SSE,163,4.0,7.0,60,0.00,,---,0.00,VWS V14.01,2013-04-16 01:20:00,
2013-04-15 21:24:00,60.9,47.4,30.07,SSE,152,5.0,8.0,61,0.00,,---,0.00,VWS V14.01,2013-04-16 01:24:00,
2013-04-15 21:29:00,60.8,47.3,30.08,SE,130,7.0,8.0,61,0.00,,---,0.00,VWS V14.01,2013-04-16 01:29:00,
2013-04-15 21:30:00,60.8,47.3,30.08,SE,130,7.0,8.0,61,0.00,,---,0.00,VWS V14.01,2013-04-16 01:30:00,
2013-04-15 21:34:00,60.8,47.3,30.07,SSE,161,10.0,12.0,61,0.00,,---,0.00,VWS V14.01,2013-04-16 01:34:00,
2013-04-15 21:39:00,60.8,47.3,30.08,SSW,196,14.0,16.0,61,0.00,,---,0.00,VWS V14.01,2013-04-16 01:39:00,
2013-04-15 21:40:00,60.8,47.3,30.08,SSW,196,14.0,16.0,61,0.00,,---,0.00,VWS V14.01,2013-04-16 01:40:00,
2013-04-15 21:44:00,60.9,47.4,30.08,SE,144,6.0,15.0,61,0.00,,---,0.00,VWS V14.01,2013-04-16 01:44:00,
2013-04-15 21:49:00,61.1,47.6,30.08,South,179,8.0,15.0,61,0.00,,---,0.00,VWS V14.01,2013-04-16 01:49:00,
2013-04-15 21:50:00,61.1,47.6,30.08,South,179,8.0,15.0,61,0.00,,---,0.00,VWS V14.01,2013-04-16 01:50:00,
2013-04-15 21:54:00,61.1,47.6,30.08,South,180,6.0,20.0,61,0.00,,---,0.00,VWS V14.01,2013-04-16 01:54:00,
2013-04-15 21:59:00,61.1,48.0,30.08,SW,221,3.0,3.0,62,0.00,,---,0.00,VWS V14.01,2013-04-16 01:59:00,
2013-04-15 22:00:00,61.1,48.0,30.08,SW,221,3.0,20.0,62,0.00,,---,0.00,VWS V14.01,2013-04-16 02:00:00,
2013-04-15 22:04:00,61.0,47.9,30.08,SSW,210,4.0,10.0,62,0.00,,---,0.00,VWS V14.01,2013-04-16 02:04:00,
2013-04-15 22:09:00,60.8,47.7,30.09,SSW,206,5.0,5.0,62,0.00,,---,0.00,VWS V14.01,2013-04-16 02:09:00,
2013-04-15 22:10:00,60.8,47.7,30.09,SSW,211,5.0,10.0,62,0.00,,---,0.00,VWS V14.01,2013-04-16 02:10:00,
2013-04-15 22:14:00,60.7,48.0,30.09,SSE,153,7.0,9.0,63,0.00,,---,0.00,VWS V14.01,2013-04-16 02:14:00,
2013-04-15 22:19:00,60.8,48.1,30.09,South,180,4.0,4.0,63,0.00,,---,0.00,VWS V14.01,2013-04-16 02:19:00,
2013-04-15 22:20:00,60.8,48.1,30.09,South,180,4.0,15.0,63,0.00,,---,0.00,VWS V14.01,2013-04-16 02:20:00,
2013-04-15 22:24:00,60.5,47.9,30.08,South,169,4.0,6.0,63,0.00,,---,0.00,VWS V14.01,2013-04-16 02:24:00,
2013-04-15 22:29:00,60.4,48.2,30.08,SSW,195,4.0,4.0,64,0.00,,---,0.00,VWS V14.01,2013-04-16 02:29:00,
2013-04-15 22:30:00,60.4,48.2,30.08,SSW,207,4.0,8.0,64,0.00,,---,0.00,VWS V14.01,2013-04-16 02:30:00,
2013-04-15 22:34:00,60.3,48.1,30.08,SSE,160,7.0,10.0,64,0.00,,---,0.00,VWS V14.01,2013-04-16 02:34:00,
2013-04-15 22:39:00,60.4,48.2,30.08,SSW,209,9.0,12.0,64,0.00,,---,0.00,VWS V14.01,2013-04-16 02:39:00,
2013-04-15 22:40:00,60.4,48.2,30.08,SW,222,12.0,13.0,64,0.00,,---,0.00,VWS V14.01,2013-04-16 02:40:00,
2013-04-15 22:44:00,60.5,48.3,30.08,South,179,8.0,14.0,64,0.00,,---,0.00,VWS V14.01,2013-04-16 02:44:00,
2013-04-15 22:49:00,60.5,48.3,30.08,South,183,4.0,6.0,64,0.00,,---,0.00,VWS V14.01,2013-04-16 02:49:00,
2013-04-15 22:50:00,60.5,48.3,30.09,ESE,123,5.0,14.0,64,0.00,,---,0.00,VWS V14.01,2013-04-16 02:50:00,
2013-04-15 22:54:00,60.5,48.3,30.08,SE,133,12.0,12.0,64,0.00,,---,0.00,VWS V14.01,2013-04-16 02:54:00,
2013-04-15 22:59:00,60.4,48.6,30.08,SSE,162,10.0,10.0,65,0.00,,---,0.00,VWS V14.01,2013-04-16 02:59:00,
2013-04-15 23:00:00,60.4,48.6,30.08,South,173,10.0,14.0,65,0.00,,---,0.00,VWS V14.01,2013-04-16 03:00:00,
2013-04-15 23:04:00,60.4,48.6,30.07,SSW,200,9.0,18.0,65,0.00,,---,0.00,VWS V14.01,2013-04-16 03:04:00,
2013-04-15 23:09:00,60.3,48.5,30.07,SSE,156,7.0,7.0,65,0.00,,---,0.00,VWS V14.01,2013-04-16 03:09:00,
2013-04-15 23:10:00,60.3,48.5,30.07,South,181,7.0,18.0,65,0.00,,---,0.00,VWS V14.01,2013-04-16 03:10:00,
2013-04-15 23:14:00,60.2,48.8,30.07,SSE,162,4.0,12.0,66,0.00,,---,0.00,VWS V14.01,2013-04-16 03:14:00,
2013-04-15 23:19:00,60.3,48.9,30.08,SSE,164,10.0,12.0,66,0.00,,---,0.00,VWS V14.01,2013-04-16 03:19:00,
2013-04-15 23:20:00,60.2,48.8,30.08,South,184,12.0,23.0,66,0.00,,---,0.00,VWS V14.01,2013-04-16 03:20:00,
2013-04-15 23:24:00,60.4,48.6,30.08,South,175,7.0,13.0,65,0.00,,---,0.00,VWS V14.01,2013-04-16 03:24:00,
2013-04-15 23:29:00,60.4,49.0,30.08,SE,145,9.0,12.0,66,0.00,,---,0.00,VWS V14.01,2013-04-16 03:29:00,
2013-04-15 23:30:00,60.4,49.0,30.08,South,182,11.0,15.0,66,0.00,,---,0.00,VWS V14.01,2013-04-16 03:30:00,
2013-04-15 23:34:00,60.3,48.9,30.08,South,171,12.0,15.0,66,0.00,,---,0.00,VWS V14.01,2013-04-16 03:34:00,
2013-04-15 23:39:00,60.2,48.8,30.07,SSW,198,7.0,9.0,66,0.00,,---,0.00,VWS V14.01,2013-04-16 03:39:00,
2013-04-15 23:40:00,60.2,48.8,30.07,South,176,9.0,15.0,66,0.00,,---,0.00,VWS V14.01,2013-04-16 03:40:00,
2013-04-15 23:45:00,60.0,49.0,30.07,SSE,164,7.0,11.0,67,0.00,,---,0.00,VWS V14.01,2013-04-16 03:45:00,
2013-04-15 23:49:00,59.9,48.9,30.07,SSE,161,7.0,10.0,67,0.00,,---,0.00,VWS V14.01,2013-04-16 03:49:00,
2013-04-15 23:50:00,59.9,48.9,30.07,SSE,167,8.0,13.0,67,0.00,,---,0.00,VWS V14.01,2013-04-16 03:50:00,